Home   Weather   Fairfield   Past weeks
Flag for USA

Past Weather in Fairfield, Pennsylvania, USA — Yesterday and Last 2 Weeks

Now
44 °F

Passing clouds.


Feels Like: 38 °F
Forecast: 44 / 33 °F
Wind: 12 mph from West

Location: Washington County Regional Airport

Current Time: Dec 15, 2019 at 7:54:32 am

Latest Report: Dec 15, 2019 at 6:53 am


Visibility: 10 mi

Pressure: 29.82 "Hg

Humidity: 60%

Dew Point: 31 °F

Location of FairfieldLocation

Past Weather in Fairfield — Graph

°F

Fairfield Temperature Yesterday

Maximum temperature yesterday: 45 °F (at 3:53 pm)
Minimum temperature yesterday: 35 °F (at 5:53 am)
Average temperature yesterday: 39 °F

High & Low Weather Summary for the Past Weeks

 TemperatureHumidityPressure
High56 °F (Dec 10, 1:53 pm)97% (Dec 14, 1:53 am)30.75 "Hg (Dec 14, 1:53 am)
Low23 °F (Dec 12, 6:53 am)34% (Dec 11, 2:53 pm)29.34 "Hg (Dec 14, 3:17 pm)
Average38 °F68%30.00 "Hg
* Reported Nov 30 5:53 am — Dec 15 5:53 am, Fairfield. Weather by CustomWeather, © 2019

Note: Actual official high and low records may vary slightly from our data, if they occured in-between our weather recording intervals... More about our weather records

Fairfield Weather History for the Previous 24 Hours

Scroll right to see more
 ConditionsComfort  
Time TempWeatherWind HumidityBarometerVisibility
5:53 am
Sun, Dec 15
45 °FMostly cloudy.10 mph60%29.79 "Hg10 mi
4:53 am44 °FMostly cloudy.8 mph60%29.77 "Hg10 mi
3:53 am44 °FMostly cloudy.7 mph60%29.75 "Hg10 mi
2:53 am43 °FPartly cloudy.10 mph62%29.73 "Hg10 mi
1:53 am43 °FOvercast.13 mph68%29.70 "Hg10 mi
12:53 am43 °FOvercast.10 mph65%29.67 "Hg10 mi
11:53 pm
Sat, Dec 14
42 °FOvercast.10 mph68%29.65 "Hg10 mi
10:53 pm42 °FOvercast.13 mph68%29.64 "Hg10 mi
9:53 pm42 °FOvercast.10 mph65%29.62 "Hg10 mi
8:53 pm43 °FOvercast.14 mph62%29.60 "Hg10 mi
7:53 pm43 °FPassing clouds.21 mph60%29.57 "Hg10 mi
6:53 pm43 °FPassing clouds.17 mph62%29.54 "Hg10 mi
5:53 pm43 °FPassing clouds.17 mph65%29.51 "Hg10 mi
4:53 pm45 °FOvercast.20 mph65%29.45 "Hg10 mi
4:33 pm45 °FOvercast.17 mph68%29.39 "Hg10 mi
3:53 pm45 °FMostly cloudy.14 mph76%29.40 "Hg10 mi
3:17 pm43 °FScattered clouds.9 mph86%29.34 "Hg10 mi
2:53 pm40 °FLow clouds.10 mph93%29.37 "Hg8 mi
1:53 pm39 °FLight rain. Mostly cloudy.7 mph93%29.36 "Hg10 mi
12:53 pm39 °FLight rain. Fog.8 mph89%29.38 "Hg6 mi
11:53 am37 °FRain. Fog.6 mph93%29.39 "Hg3 mi
11:11 am37 °FLight rain. Fog.5 mph93%29.37 "Hg3 mi
10:53 am37 °FRain. Fog.8 mph93%29.42 "Hg2 mi
10:35 am37 °FRain. Fog.6 mph89%29.40 "Hg2 mi
9:53 am36 °FLight rain. Fog.8 mph92%29.49 "Hg1 mi
9:14 am36 °FFog.5 mph92%29.45 "Hg0 mi
8:53 am36 °FLight rain. Fog.5 mph92%29.51 "Hg0 mi
7:53 am35 °FFog.5 mph92%29.52 "Hg0 mi
Weather by CustomWeather, © 2019

See weather overview

Advertising